Location: Cerro Alto Campground
(35.4250°N, 120.7383°W)
Time: 03:18:11
(UTC-07:00)

Daily predictions for brighter satellites

Satellite Brightness Start Highest point End
(mag) Time Altitude Azimuth Time Altitude Azimuth Time Altitude Azimuth
ATLAS 3B R/B 3.8 02:13:34 45° N 02:13:34 45° N 02:18:33 10° NNE
CZ-4C R/B 4.3 02:26:34 22° NE 02:26:34 22° NE 02:28:39 10° NE
SL-16 R/B 4.2 02:48:06 23° E 02:49:55 27° ENE 02:54:58 10° N
USA 238 DEB 4.3 02:58:47 54° N 02:58:47 54° N 03:04:16 10° NNE
USA 238 4.3 02:58:54 54° N 02:58:54 54° N 03:04:22 10° NNE
CZ-3A R/B 3.7 03:00:05 64° SSE 03:01:08 68° ESE 03:40:09 10° NE
USA 234 3.6 02:56:42 10° NE 03:01:55 60° NE 03:01:55 60° NE
CZ-2D R/B 3.6 03:05:57 10° NNE 03:09:38 30° ENE 03:09:38 30° ENE
NOSS 3-2 (A) 4.0 03:16:04 54° ENE 03:16:04 54° ENE 03:21:13 10° NE
Cosmos 1553 Rocket 4.4 03:21:59 58° N 03:21:59 58° N 03:26:49 10° N
SL-16 R/B 3.8 03:23:49 26° NNW 03:23:49 26° NNW 03:26:50 10° N
Cosmos 1745 Rocket 4.2 03:21:18 10° N 03:27:20 69° ENE 03:27:20 69° ENE
NOSS 3-2 (C) 3.7 03:30:25 64° E 03:30:25 64° E 03:36:11 10° NE
CENTAUR R/B 4.4 03:38:04 15° SE 03:40:23 18° ESE 03:44:29 10° ENE
Cosmos 494 Rocket 4.5 03:48:33 55° E 03:48:33 55° E 03:53:29 10° NNE
ATLAS CENTAUR R/B 4.0 03:45:47 10° N 03:48:52 19° NE 03:51:46 10° E
IRS-1D 3.9 03:46:40 10° N 03:50:53 59° N 03:50:53 59° N
Resurs 1-4 Rocket 2.2 03:49:52 10° NNE 03:54:33 71° N 03:54:33 71° N
ARIANE 5 R/B 3.1 04:02:22 10° N 04:06:34 46° NW 04:06:34 46° NW
ATLAS 5 CENTAUR R/B 2.6 04:09:01 41° SE 04:09:32 43° ESE 04:14:18 10° NE
Cosmos 883 Rocket 4.3 04:09:18 69° SW 04:09:55 76° W 04:16:04 10° N
Meteor 2-3 Rocket 3.6 04:04:11 10° N 04:09:59 89° W 04:11:13 58° S
CZ-4C R/B 3.7 04:11:45 23° NW 04:11:59 23° NW 04:16:37 10° N
Okean O Rocket 2.6 04:08:02 10° NNE 04:12:18 42° E 04:13:19 36° SE
Cosmos 1892 3.6 04:09:31 10° N 04:12:57 48° ENE 04:12:57 48° ENE
Cosmos 1331 Rocket 4.1 04:08:58 10° NNW 04:14:14 74° ENE 04:17:54 20° SSE
Cosmos 2315 Rocket 4.0 04:12:21 46° S 04:14:22 82° E 04:20:39 10° N
In-Cosmos 22 Rocket 4.1 04:11:32 10° NNW 04:16:16 60° WNW 04:16:16 60° WNW
PSLV R/B 3.9 04:23:31 10° NNE 04:27:14 64° E 04:27:19 63° ESE
IRS-1C Rocket 4.1 04:26:44 10° NNE 04:32:02 79° ESE 04:34:19 35° S
OAO 3 Copernicus 4.2 04:31:21 62° W 04:32:14 87° S 04:37:17 10° E
SL-16 R/B 2.8 04:33:12 42° W 04:33:15 42° W 04:39:04 10° NNW
SeaSat 1 2.3 04:30:13 10° SSE 04:35:08 90° S 04:40:06 10° NNW
Cosmos 2251 Rocket 4.1 04:35:06 37° WNW 04:35:13 37° WNW 04:40:05 10° N
Cosmos 1943 3.5 04:35:53 44° W 04:36:51 49° WNW 04:42:20 10° N
SL-27 R/B 4.1 04:40:35 20° SSE 04:42:26 33° ESE 04:45:45 10° NE
Cosmos 2242 Rocket 4.1 04:43:26 41° WNW 04:43:26 41° WNW 04:47:37 10° N
Cosmos 1455 2.2 04:43:38 62° WNW 04:43:38 62° WNW 04:47:26 10° N
Meteor 2-10 4.3 04:42:45 42° WSW 04:44:07 52° WNW 04:49:29 10° N
CZ-2D R/B 3.9 04:40:35 10° N 04:44:48 46° WNW 04:44:58 46° W
CZ-4B DEB 4.4 04:39:30 10° NNE 04:44:59 71° ESE 04:49:11 17° S
Cosmos 1110 Rocket 4.2 04:42:53 10° NNW 04:47:49 44° WSW 04:48:50 39° SW
CZ-2D R/B 3.2 04:46:15 10° NNW 04:50:33 26° WNW 04:50:57 26° WNW
Cosmos 2369 Rocket 2.1 04:46:29 10° NNW 04:52:01 64° WSW 04:57:34 10° S
CZ-4B R/B 3.0 04:46:47 10° NNE 04:52:07 90° W 04:55:45 21° SSW
CZ-3 R/B 4.0 04:02:33 10° W 04:52:47 58° SSW 05:03:13 10° SE
CZ-4B R/B 2.5 04:57:58 10° N 05:01:36 72° WNW 05:03:05 34° SSW
Cosmos 1862 Rocket 3.7 05:01:37 34° SW 05:03:07 51° W 05:07:23 10° N
BREEZE-M DEB (TANK) 2.7 05:03:11 49° S 05:03:37 60° SE 05:07:16 10° NE
Cosmos 1862 4.0 05:02:37 10° N 05:06:31 55° E 05:10:24 10° SSE
PSLV R/B 4.1 05:02:39 10° NNE 05:06:59 61° E 05:11:19 10° S
Pageos (A) 2.9 05:04:56 10° N 05:07:03 83° E 05:07:12 73° SSE
Nadezhda 1 Rocket 4.1 05:04:39 10° S 05:10:50 78° E 05:17:09 10° N
PAYLOAD B 4.3 05:06:26 10° N 05:11:51 56° WNW 05:15:57 17° SW
Cosmos 1933 3.3 05:10:48 13° S 05:14:25 83° W 05:18:33 10° N
Cosmos 389 Rocket 2.9 05:16:15 31° WSW 05:17:20 40° W 05:20:39 10° N
ASTRO F (AKARI) 4.5 05:14:26 10° S 05:18:10 71° WSW 05:21:44 10° NNW
Cosmos 1869 4.2 05:17:30 26° WSW 05:18:34 30° WNW 05:22:07 10° NNW
Cosmos 2263 4.3 05:13:43 10° NNW 05:19:20 53° WSW 05:24:55 10° S
Feng Yun 1-1 Rocket 4.4 05:15:46 10° NNE 05:21:09 71° ESE 05:26:32 10° S
Cosmos 1943 Rocket 2.1 05:20:24 10° NNW 05:26:05 82° WSW 05:31:42 10° SSE
Okean 1-7 3.5 05:23:36 10° S 05:27:48 63° E 05:32:05 10° NNE
Cosmos 1825 2.1 05:24:01 10° N 05:27:49 83° W 05:31:36 10° S
ATLAS CENTAUR R/B 1.8 05:24:18 10° NW 05:28:04 34° WSW 05:31:33 10° S
CENTAUR R/B 2.6 05:25:17 16° SW 05:30:10 63° NW 05:36:52 10° NNE
Cosmos 1733 Rocket 4.1 05:31:12 10° NW 05:34:44 24° W 05:38:06 11° SW
Cosmos 2154 Rocket 4.5 05:28:31 10° N 05:34:50 68° E 05:41:08 10° SSE
Cosmos 2074 Rocket 4.1 05:29:52 10° NNW 05:35:54 55° W 05:41:57 10° SSW
ADEOS Rocket 3.6 05:28:43 10° N 05:36:26 78° WNW 05:44:09 10° SSW
Cosmos 2184 Rocket 4.1 05:30:25 10° NNW 05:36:39 57° W 05:42:50 10° SSW
Cosmos 407 Rocket 4.1 05:32:23 10° S 05:37:26 58° ESE 05:42:35 10° NNE
Cosmos 1408 2.6 05:34:54 10° NNW 05:38:35 58° W 05:42:15 10° S
Aureole 3 Rocket 4.2 05:30:53 10° S 05:39:02 76° W 05:44:51 10° N
Cosmos 1782 Rocket 3.6 05:35:28 10° N 05:39:49 86° E 05:44:09 10° S
NAVSTAR 52 R/B(PAM-D 4.0 05:39:50 18° WNW 05:40:40 29° N 05:42:11 10° ENE
COSMOS 2487 3.7 05:37:39 10° S 05:41:05 43° ESE 05:44:32 10° NNE
Atlas Centaur 2 3.7 05:41:20 10° SSW 05:45:20 24° SSE 05:50:08 10° ESE
Cosmos 2221 Rocket 3.8 05:43:23 10° SSW 05:47:42 49° W 05:52:00 10° N
Okean O Rocket 3.4 05:45:39 10° NNW 05:48:17 15° WNW 05:50:47 10° WSW
Okean-O 2.9 05:44:07 10° N 05:48:23 48° WNW 05:52:38 10° SSW
Cosmos 2341 Rocket 4.4 05:45:13 10° N 05:51:30 72° E 05:57:49 10° SSE
ATLAS 5 CENTAUR R/B 3.3 05:50:36 10° W 05:54:25 22° NW 05:58:26 10° N
ADEOS II 2.3 05:49:29 10° N 05:54:36 53° WNW 05:59:41 10° SSW
COSMO-SKYMED 1 4.2 05:53:41 10° SE 05:57:43 40° ENE 06:01:47 10° N
Cosmos 1908 Rocket 4.4 05:56:52 10° NNW 06:00:39 29° W 06:04:23 10° SSW
NOAA 6 4.1 05:57:38 10° NNE 06:02:49 87° ESE 06:07:59 10° SSW
Cosmos 1656 Rocket 3.6 05:57:57 10° NNW 06:03:24 85° WSW 06:08:47 10° SSE
Cosmos 2285 Rocket 4.1 05:58:09 10° NNW 06:04:27 58° WSW 06:10:39 10° S
CZ-4B R/B 4.2 06:00:35 10° N 06:05:05 68° WNW 06:09:30 10° SSW
